Theta_e
293 293 293 291 289 288 288 287 287 287 286 286 285 285 285 285 285 285 286 286 285 284 284 284 284 285 284 284 285 285 285 285 282 284 286 287 287 286 287 288 289 288 289
289 289 288 288 287 286 285 285 286 285 285 285 284 284 284 284 284 284 284 284 283 283 283 283 283 284 283 284 284 284 284 285 283 281 284 284 284 286 287 286 287 288 288
288 287 286 286 285 284 284 284 285 285 284 284 283 282 282 283 283 284 284 283 283 283 284 283 283 283 283 283 284 283 284 284 284 282 282 284 285 286 284 285 284 285 286
287 286 284 284 284 284 283 284 283 283 282 281 281 281 282 282 283 283 283 282 282 283 284 284 284 284 283 283 283 283 284 283 283 283 283 283 283 283 284 282 282 285 283
285 284 284 284 283 283 282 282 282 281 281 281 280 280 281 281 284 283 282 282 282 282 284 284 284 284 285 285 284 283 284 283 283 281 281 281 281 281 281 283 282 281 281
284 284 284 283 282 282 281 281 281 280 279 280 279 279 279 281 285 286 284 282 282 282 282 283 284 283 284 286 286 287 287 284 282 282 282 280 281 282 282 280 279 277 276
284 283 282 282 281 281 280 279 279 278 279 278 278 279 278 279 285 285 285 282 281 281 281 282 282 282 283 283 285 287 286 287 287 283 281 281 281 282 280 278 277 275 274
283 282 281 281 280 278 278 278 277 277 277 277 277 278 278 279 283 284 285 282 281 281 281 281 281 281 282 284 285 284 284 283 283 284 283 283 282 281 281 277 274 272 275
282 282 281 279 278 277 275 276 276 276 276 276 277 274 273 275 282 283 283 280 281 281 281 283 281 282 285 287 285 284 279 280 286 285 285 284 284 283 283 273 272 269 270
282 281 280 278 276 275 276 275 275 274 276 276 276 273 272 270 279 282 283 280 273 279 280 283 283 284 285 287 284 281 281 279 282 274 274 276 278 277 280 275 271 265 266
281 279 277 276 275 276 275 274 273 273 274 272 272 272 270 272 274 281 283 280 280 278 281 281 282 285 286 286 286 282 283 282 276 267 269 271 272 272 274 273 275 270 267
279 277 275 274 275 274 272 272 272 272 271 270 269 269 272 272 276 280 283 283 283 281 280 281 283 286 285 285 283 285 283 280 279 276 275 274 274 271 274 273 270 269 270
277 274 272 273 274 273 272 271 271 270 271 270 271 269 269 272 272 279 280 283 282 281 281 281 284 285 284 283 282 281 273 270 274 277 276 275 271 272 271 270 268 267 267
275 272 272 273 273 272 273 272 271 269 269 270 268 268 268 269 270 271 274 280 281 281 281 277 282 281 280 277 272 273 272 270 268 268 268 269 269 269 267 267 265 267 262
274 273 273 273 272 271 272 272 271 270 270 268 267 268 266 265 269 278 277 277 279 280 280 280 276 271 266 267 266 266 266 266 265 266 264 265 266 267 267 265 264 261 260
273 272 272 272 271 271 270 269 274 275 277 278 279 274 272 279 279 279 280 281 281 281 278 274 272 264 265 265 264 264 264 264 264 264 261 262 264 265 267 266 263 259 259
275 273 272 271 270 269 268 268 267 270 275 277 278 279 279 277 277 279 279 279 279 275 265 262 261 262 262 263 262 262 262 262 261 261 260 261 261 261 263 264 264 263 261
275 273 272 271 269 268 267 266 265 265 264 262 271 275 276 276 276 275 275 269 259 259 255 256 256 257 258 259 259 260 260 259 260 260 260 260 260 260 261 261 262 259 258
271 270 270 268 266 265 264 263 262 260 259 258 258 267 264 274 274 272 269 255 255 254 253 253 253 254 255 255 255 255 255 255 257 256 259 259 261 261 260 259 261 261 259
268 266 265 264 262 261 262 262 261 261 261 261 260 261 257 258 257 255 252 252 252 252 253 253 252 251 252 252 252 252 253 255 258 257 259 260 260 260 261 260 259 258 257
265 261 262 259 261 261 261 262 263 261 261 261 261 261 267 262 260 257 257 254 255 256 255 252 251 251 250 250 250 251 254 258 257 257 257 257 258 258 258 259 258 256 254
264 260 259 260 259 260 260 261 261 261 261 261 260 259 272 262 258 257 257 258 256 254 253 252 252 252 252 252 252 253 254 256 255 257 256 257 257 257 256 257 256 255 255
263 261 260 259 261 261 260 259 260 261 261 259 259 260 257 257 258 257 257 255 254 254 254 253 253 253 253 254 255 256 256 256 255 253 253 253 254 255 254 254 254 253 252
263 263 263 263 261 261 262 261 260 260 259 258 257 257 258 258 257 259 258 256 254 252 252 254 254 255 254 254 254 254 255 255 253 254 253 253 252 253 253 252 252 253 254
262 263 264 264 263 262 262 262 260 260 259 259 259 258 258 258 258 259 258 255 255 254 255 255 255 256 256 256 255 254 254 260 255 253 252 252 254 253 253 253 251 251 250
261 262 262 263 262 262 262 261 261 260 258 259 258 258 260 260 260 259 258 254 254 255 255 255 256 256 256 256 256 257 257 261 258 257 253 252 254 254 253 251 250 249 250
Wind_Speed
8 9 13 11 10 9 9 6 6 6 6 6 6 6 6 6 5 5 5 5 5 4 3 4 5 5 4 4 5 5 6 7 12 13 12 15 18 17 15 14 14 13 13
7 10 11 11 10 9 8 6 6 6 5 6 6 6 5 5 5 5 5 4 5 6 6 6 7 7 9 8 7 9 8 9 10 18 15 13 14 15 16 17 13 11 12
9 10 10 10 10 9 8 7 6 6 6 6 5 5 5 4 5 5 5 5 5 4 7 8 8 8 8 7 7 9 8 8 8 10 14 11 12 12 14 13 13 14 11
9 9 9 8 8 7 7 6 6 5 6 5 5 5 4 5 4 4 4 5 4 4 6 5 6 6 6 6 6 7 7 8 8 8 10 11 11 11 10 14 16 11 15
9 8 8 7 7 7 7 6 5 5 5 5 5 5 4 4 2 4 4 3 3 3 4 4 3 5 9 10 7 7 8 8 8 8 9 11 12 12 12 10 12 14 14
9 9 8 8 8 7 6 6 5 5 5 5 5 5 5 2 4 4 4 3 2 1 2 3 4 5 6 13 14 15 14 9 9 7 8 11 11 12 10 10 11 12 13
9 9 9 8 8 7 6 6 5 5 4 5 4 4 4 3 4 3 2 1 2 3 4 4 5 3 7 6 9 15 12 15 13 8 10 10 11 10 12 12 11 9 8
10 10 9 8 8 7 7 6 5 4 4 4 4 3 3 2 3 2 3 1 3 4 4 5 4 5 6 8 8 6 6 6 5 4 7 8 6 6 9 7 7 9 9
12 11 10 9 9 7 7 6 4 4 2 2 3 3 3 2 2 2 2 2 3 4 4 4 4 4 9 16 7 5 5 5 6 9 11 12 12 12 10 4 7 7 6
14 12 10 9 8 8 7 6 3 2 3 2 3 3 1 2 3 2 0 2 2 3 3 4 7 8 13 15 4 3 7 5 4 6 6 7 7 7 10 1 2 2 3
11 10 9 8 8 6 6 3 4 3 4 3 2 2 1 3 4 2 3 2 2 2 2 3 3 11 13 11 10 3 6 5 6 3 4 4 4 4 4 4 3 1 2
13 11 9 8 6 5 6 4 4 4 4 3 2 2 2 3 4 3 4 4 5 2 4 4 6 11 11 9 7 10 11 7 5 5 5 4 4 3 6 5 4 2 2
13 11 10 8 6 6 6 6 4 4 4 4 3 3 3 2 2 4 7 5 6 4 3 8 15 11 9 7 7 8 6 4 4 4 6 5 3 4 5 5 3 4 3
14 12 9 9 8 6 4 5 5 5 4 4 4 3 3 3 3 2 2 2 5 5 9 6 7 3 4 3 3 5 3 2 1 2 2 3 3 3 3 3 3 5 3
12 10 9 7 8 6 5 5 5 4 5 5 4 4 3 3 3 3 3 2 3 5 6 3 1 2 2 2 2 3 2 3 3 3 2 3 3 3 3 2 2 3 2
12 9 8 8 6 6 5 4 8 9 12 13 10 7 4 6 3 5 8 8 9 10 2 1 1 1 1 1 1 2 2 3 2 2 2 2 3 3 3 3 1 2 1
13 11 8 8 8 7 6 6 7 5 8 9 8 10 4 3 3 7 5 7 5 1 2 1 2 2 2 1 1 0 1 2 2 2 2 2 3 2 3 3 4 2 3
9 12 9 9 8 7 6 6 3 5 5 2 5 6 6 4 3 2 4 3 2 4 2 3 3 2 1 1 1 1 2 2 1 2 2 2 2 2 2 3 3 2 2
9 8 7 6 6 6 5 4 4 3 3 3 1 4 1 4 5 1 2 3 4 3 2 2 2 2 2 2 2 2 1 1 1 0 1 1 3 2 2 2 4 4 3
5 8 7 6 6 5 5 5 4 4 5 5 4 4 2 3 2 2 1 2 2 3 3 3 3 3 4 3 3 2 1 1 2 1 1 1 2 2 2 3 2 2 2
5 4 6 4 6 6 6 7 6 6 5 5 5 4 10 5 4 4 4 4 4 4 4 3 3 3 3 3 3 2 2 2 3 2 1 1 1 1 2 2 2 2 2
6 6 6 7 5 6 6 5 6 6 6 6 4 3 15 3 4 4 4 4 4 4 3 4 4 4 4 4 3 4 3 3 3 3 2 2 2 2 2 2 2 1 2
7 8 7 5 6 6 6 5 6 6 5 4 3 4 3 3 4 4 4 4 4 4 4 4 4 4 3 4 4 5 4 5 4 4 3 3 2 2 1 2 1 1 1
7 8 8 7 6 6 7 7 6 6 5 4 4 4 4 4 4 5 4 4 3 3 3 4 4 6 5 5 4 5 4 4 3 4 5 4 3 3 2 2 2 2 2
7 7 7 7 7 7 6 6 6 6 5 5 5 4 4 4 4 4 3 3 4 4 5 5 4 7 9 9 8 8 6 9 6 6 4 4 5 5 4 3 3 2 2
6 6 6 5 6 6 6 6 6 5 5 5 4 5 5 4 5 4 4 4 4 4 6 5 6 10 9 8 9 9 8 10 9 10 6 5 6 5 4 6 5 4 5
Wind_Direction
107 121 115 111 112 108 110 109 114 110 104 98 95 87 71 64 50 60 54 38 33 18 19 24 10 3 1 356 356 351 338 326 304 312 316 322 318 319 322 319 314 311 311
123 116 113 117 117 111 108 112 114 109 97 102 93 86 77 67 63 61 51 31 26 16 14 20 14 7 11 4 352 340 327 321 311 309 315 315 320 319 316 317 325 319 312
122 124 123 127 123 122 122 121 117 114 100 83 89 93 87 81 75 55 50 34 29 43 27 18 7 1 354 344 340 334 324 317 298 294 304 312 316 320 325 321 323 317 313
134 132 132 130 123 119 116 114 111 115 112 111 99 92 81 88 73 63 55 46 34 38 24 14 359 349 333 320 317 310 302 300 298 296 306 315 324 330 322 322 327 334 325
139 134 136 125 116 119 120 123 120 112 113 117 119 99 86 95 79 74 72 48 36 30 18 359 320 296 302 330 322 311 308 305 311 314 317 320 328 333 333 337 326 323 326
149 143 139 133 129 126 128 133 125 125 128 122 111 111 95 95 72 54 61 50 24 343 299 289 280 271 295 330 322 313 306 310 311 309 324 324 325 324 342 334 332 335 337
148 146 144 142 143 141 138 136 139 142 131 121 114 105 98 110 68 57 43 128 291 292 287 289 304 307 306 297 298 298 301 306 326 326 315 318 322 342 334 335 332 325 309
156 156 153 154 148 147 146 150 145 140 149 144 99 83 92 80 42 354 352 255 279 300 306 296 295 295 301 309 301 294 304 301 289 310 301 311 324 331 338 321 305 302 291
168 167 165 161 156 152 155 156 149 146 152 151 133 99 86 25 336 334 34 359 314 283 277 295 330 297 324 314 314 311 317 293 288 338 337 336 338 345 350 326 356 350 331
176 172 163 156 153 158 155 155 137 161 150 137 134 108 143 242 302 299 34 222 266 265 294 346 312 323 321 328 352 355 327 297 323 343 339 342 342 332 347 11 300 339 318
153 143 143 145 153 149 140 125 143 136 126 127 102 23 288 240 275 293 321 184 283 280 323 313 290 303 321 329 334 309 315 341 348 349 324 319 316 323 326 317 303 169 329
143 144 145 143 144 143 142 134 133 136 139 137 110 288 263 259 262 303 344 350 343 338 310 297 294 295 318 326 328 339 339 338 331 336 343 343 337 329 330 317 311 299 210
147 148 143 140 140 151 155 154 153 163 162 170 184 193 262 280 265 342 342 324 321 317 299 286 305 316 317 314 324 355 13 356 330 332 340 327 296 296 305 327 322 329 292
146 146 147 154 154 161 165 169 164 177 175 184 192 191 228 264 281 304 276 273 302 312 303 287 291 327 4 10 17 16 8 354 340 312 289 283 302 338 331 341 341 342 2
143 147 153 154 165 169 186 181 192 195 179 180 201 188 182 248 246 249 312 255 256 273 283 285 5 14 11 350 350 349 347 346 9 328 339 326 317 326 328 336 8 345 47
146 157 166 165 169 173 172 181 224 212 209 221 217 199 230 226 276 296 283 297 298 297 229 261 295 246 197 322 334 306 334 351 336 341 344 332 339 332 324 330 358 37 2
161 163 162 167 177 169 177 185 182 212 224 223 216 223 203 213 269 274 288 295 301 349 129 164 193 196 213 239 313 334 305 311 301 359 350 333 329 311 358 344 342 334 330
160 169 172 177 170 169 180 190 178 179 175 212 246 201 208 221 250 265 279 24 30 6 122 173 200 204 213 192 287 253 270 308 4 7 345 331 338 328 338 350 348 327 320
162 171 169 162 158 164 161 172 185 160 178 197 265 239 273 212 186 179 90 144 176 205 193 183 191 199 204 202 234 266 246 267 272 59 295 324 339 335 316 321 330 329 341
143 145 152 160 156 163 173 179 172 195 207 207 198 208 184 106 168 240 234 177 181 200 190 188 206 208 207 207 215 222 255 252 266 252 283 312 335 314 321 316 332 322 322
159 138 155 142 173 176 182 191 193 192 201 210 217 205 198 185 203 200 203 207 202 206 202 196 207 209 222 224 220 235 212 258 241 239 243 262 325 315 327 296 297 265 294
166 166 173 186 168 180 193 191 193 199 198 203 214 230 229 160 179 200 214 219 216 212 197 186 217 211 198 201 208 223 194 236 239 222 236 250 261 261 274 269 290 280 293
178 177 179 183 188 171 192 196 197 206 215 208 196 214 218 206 202 214 222 220 214 219 208 199 208 243 231 216 211 220 193 224 224 186 194 211 229 234 223 261 267 281 271
182 187 190 188 183 188 205 206 202 198 197 205 203 216 223 214 220 225 229 231 216 229 225 222 208 229 232 228 224 225 211 220 205 210 198 192 207 215 199 226 231 234 271
188 193 197 195 189 193 199 211 197 205 197 194 207 216 220 215 219 232 232 232 234 223 238 237 214 236 239 236 236 231 219 233 214 200 192 195 217 208 217 220 204 226 235
193 192 193 187 181 186 192 201 205 203 198 198 194 205 218 217 230 229 230 220 235 234 239 237 239 237 240 240 241 241 229 231 228 221 191 195 220 221 204 218 217 210 234